Waarnemingen

Advertentie
Mijn weer
Celle, Duitsland (10343): temperatuur & dauwpunt: 15.08.2018 06:00:00 - 21.08.2018 06:00:00 (CEST)Celle, Duitsland (10343): windsnelheid: 15.08.2018 06:00:00 - 21.08.2018 06:00:00 (CEST)Celle, Duitsland (10343): windrichting: 15.08.2018 06:00:00 - 21.08.2018 06:00:00 (CEST)Celle, Duitsland (10343): luchtdruk: 15.08.2018 06:00:00 - 21.08.2018 06:00:00 (CEST)Celle, Duitsland (10343): zicht: 15.08.2018 06:00:00 - 21.08.2018 06:00:00 (CEST)
Datum & Tijd tt [°C] td [°C] ff [km/u] ff [kn] dd ppp [hPa] vv [km]
21.08.2018 06:00:00 17,0 12,5 4 2 OZO 1021,2 20
21.08.2018 05:00:00 16,9 13,2 4 2 NNW 1021,3 20
21.08.2018 04:00:00 17,1 13,2 7 4 N 1021,2 25
21.08.2018 03:00:00 17,4 13,1 7 4 NNW 1021,0 25
21.08.2018 02:00:00 17,9 13,2 7 4 NNW 1020,8 25
21.08.2018 01:00:00 18,6 14,3 7 4 NNW 1020,5 25
21.08.2018 00:00:00 19,0 15,1 4 2 WNW 1020,1 25
20.08.2018 23:00:00 19,4 15,0 7 4 W 1019,8 25
20.08.2018 22:00:00 19,9 14,7 7 4 NW 1019,5 25
20.08.2018 21:00:00 20,4 15,4 7 4 WNW 1019,1 20
20.08.2018 20:00:00 21,0 15,3 7 4 W 1018,7 20
20.08.2018 19:00:00 21,7 15,3 14 8 WNW 1018,4 25
20.08.2018 18:00:00 22,2 15,8 14 8 NW 1018,4 20
20.08.2018 17:00:00 22,6 16,3 11 6 WNW 1018,1 15
20.08.2018 16:00:00 22,3 16,3 14 8 W 1018,1 15
20.08.2018 15:00:00 20,3 17,3 9 5 WZW 1018,4 10
20.08.2018 14:00:00 19,8 17,7 7 4 WNW 1018,5 7
20.08.2018 13:00:00 20,0 16,7 18 10 WNW 1018,1 5
20.08.2018 12:00:00 21,7 15,7 22 12 WZW 1017,6 15
20.08.2018 11:00:00 20,9 16,1 18 10 WZW 1017,6 12
20.08.2018 10:00:00 20,7 15,8 22 12 WZW 1017,4 15
20.08.2018 09:00:00 19,8 15,7 18 10 WZW 1017,1 15
20.08.2018 08:00:00 19,5 15,4 14 8 WZW 1016,6 15
20.08.2018 07:00:00 19,5 15,0 14 8 W 1016,3 14
20.08.2018 06:00:00 19,8 14,6 18 10 WZW 1016,2 15
20.08.2018 05:00:00 19,3 13,8 7 4 WZW 1016,2 25
20.08.2018 04:00:00 18,9 12,8 7 4 WZW 1016,5 25
20.08.2018 03:00:00 18,4 12,2 7 4 ZW 1016,6 25
20.08.2018 02:00:00 17,5 12,0 4 2 N 1016,8 25
20.08.2018 01:00:00 17,4 11,6 4 2 Z 1017,1 25
20.08.2018 00:00:00 19,5 11,5 7 4 ZW 1017,0 25
19.08.2018 23:00:00 20,5 11,4 7 4 ZW 1016,9 25
19.08.2018 22:00:00 21,7 11,1 7 4 W 1016,7 25
19.08.2018 21:00:00 23,5 10,9 11 6 W 1016,6 25
19.08.2018 20:00:00 25,7 11,4 14 8 W 1016,2 30
19.08.2018 19:00:00 27,2 11,2 11 6 W 1016,3 30
19.08.2018 18:00:00 27,8 11,1 22 12 WZW 1016,6 30
19.08.2018 17:00:00 27,7 11,2 22 12 WZW 1017,0 30
19.08.2018 16:00:00 27,9 12,0 18 10 ZW 1017,5 30
19.08.2018 15:00:00 26,9 12,3 14 8 WZW 1018,3 25
19.08.2018 14:00:00 25,9 12,1 18 10 ZW 1019,2 25
19.08.2018 13:00:00 24,8 12,3 14 8 ZZW 1019,9 25
19.08.2018 12:00:00 24,0 13,1 14 8 Z 1020,6 20
19.08.2018 11:00:00 22,0 12,6 14 8 ZW 1021,2 20
19.08.2018 10:00:00 20,4 13,4 7 4 ZZW 1021,5 20
19.08.2018 09:00:00 18,0 12,9 4 2 N 1021,7 20
19.08.2018 08:00:00 15,4 11,9 0 0 N 1021,8 15
19.08.2018 07:00:00 12,4 10,5 4 2 ZZO 1021,7 15
19.08.2018 06:00:00 12,5 10,6 0 0 N 1021,9 9
19.08.2018 05:00:00 12,8 10,5 0 0 N 1022,1 2,5
19.08.2018 04:00:00 13,4 10,5 4 2 ZW 1022,1 11
19.08.2018 03:00:00 14,0 10,4 4 2 WZW 1022,1 11
19.08.2018 02:00:00 14,6 10,4 4 2 W 1022,0 11
19.08.2018 01:00:00 15,3 10,3 4 2 W 1022,0 11
19.08.2018 00:00:00 16,7 10,3 7 4 WZW 1021,9 12
18.08.2018 23:00:00 17,6 10,1 0 0 N 1021,1 11
18.08.2018 22:00:00 19,3 9,9 0 0 N 1021,1 11
18.08.2018 21:00:00 21,7 9,1 7 4 W 1020,9 13
18.08.2018 20:00:00 23,6 8,7 7 4 W 1020,3 14
18.08.2018 19:00:00 25,0 7,7 18 10 W 1019,9 11
18.08.2018 18:00:00 25,8 7,8 11 6 WZW 1019,9 9
18.08.2018 17:00:00 25,9 7,9 14 8 ZW 1020,1 30
18.08.2018 16:00:00 25,8 8,1 11 6 ZW 1020,2 30
18.08.2018 15:00:00 25,0 6,4 18 10 WZW 1020,7 30
18.08.2018 14:00:00 24,7 6,2 22 12 ZZW 1021,2 30
18.08.2018 13:00:00 24,0 8,8 22 12 ZW 1021,3 20
18.08.2018 12:00:00 23,0 8,9 18 10 WZW 1021,6 20
18.08.2018 11:00:00 21,8 9,9 18 10 WZW 1021,7 20
18.08.2018 10:00:00 20,1 13,1 11 6 Z 1021,8 12
18.08.2018 09:00:00 17,5 13,5 0 0 N 1021,8 12
18.08.2018 08:00:00 12,8 10,9 0 0 N 1021,8 7
18.08.2018 07:00:00 10,7 9,9 0 0 N 1021,8 6
18.08.2018 06:00:00 10,4 9,6 0 0 N 1021,5 24
18.08.2018 05:00:00 10,7 9,9 0 0 N 1021,5 24
18.08.2018 04:00:00 11,4 10,6 4 2 N 1021,4 26
18.08.2018 03:00:00 12,1 11,0 4 2 ZZW 1021,0 27
18.08.2018 02:00:00 13,2 12,1 0 0 N 1020,8 28
18.08.2018 01:00:00 14,3 12,6 0 0 N 1020,6 28
18.08.2018 00:00:00 15,6 12,9 4 2 NW 1020,2 28
17.08.2018 23:00:00 16,5 13,4 0 0 N 1019,9 28
17.08.2018 22:00:00 17,9 13,4 4 2 WNW 1019,4 28
17.08.2018 21:00:00 19,6 13,7 7 4 N 1018,6 27
17.08.2018 20:00:00 20,9 13,6 14 8 NW 1018,0 26
17.08.2018 19:00:00 23,0 13,6 14 8 WNW 1017,6 25
17.08.2018 18:00:00 22,4 13,8 14 8 WNW 1017,6 25
17.08.2018 17:00:00 22,7 13,7 18 10 WNW 1017,6 25
17.08.2018 16:00:00 23,1 13,7 22 12 W 1017,4 25
17.08.2018 15:00:00 23,1 13,6 22 12 WNW 1017,2 25
17.08.2018 14:00:00 25,3 12,8 18 10 WNW 1016,7 25
17.08.2018 13:00:00 23,9 12,5 18 10 WNW 1016,6 20
17.08.2018 12:00:00 24,7 12,7 11 6 WNW 1016,9 20
17.08.2018 11:00:00 23,8 13,7 11 6 N 1016,6 20
17.08.2018 10:00:00 21,8 15,8 11 6 NNW 1016,4 20
17.08.2018 09:00:00 19,4 15,4 7 4 NW 1016,2 15
17.08.2018 08:00:00 17,7 14,8 7 4 NW 1015,6 15
17.08.2018 07:00:00 16,9 14,7 4 2 WNW 1015,3 15
17.08.2018 06:00:00 16,5 14,4 4 2 NW 1014,8 15
17.08.2018 05:00:00 16,4 14,4 4 2 N 1014,4 25
17.08.2018 04:00:00 17,2 14,5 4 2 N 1014,5 25
17.08.2018 03:00:00 17,6 14,5 7 4 N 1014,5 25
17.08.2018 02:00:00 18,6 14,4 7 4 WNW 1014,6 25
17.08.2018 01:00:00 19,6 14,0 7 4 NW 1014,7 25
17.08.2018 00:00:00 19,9 13,6 4 2 WNW 1014,5 25
16.08.2018 23:00:00 21,6 13,6 7 4 NW 1013,9 25
16.08.2018 22:00:00 21,6 14,9 11 6 W 1013,8 25
16.08.2018 21:00:00 24,2 13,9 0 0 N 1013,5 20
16.08.2018 20:00:00 27,3 13,0 0 0 N 1013,2 25
16.08.2018 19:00:00 28,5 11,9 7 4 ZZW 1013,2 30
16.08.2018 18:00:00 28,6 11,9 11 6 Z 1013,6 20
16.08.2018 17:00:00 28,6 11,9 11 6 Z 1013,9 20
16.08.2018 16:00:00 28,0 11,8 11 6 ZW 1014,3 20
16.08.2018 15:00:00 27,1 11,8 11 6 ZO 1014,8 20
16.08.2018 14:00:00 26,6 12,0 14 8 Z 1015,4 20
16.08.2018 13:00:00 25,7 12,4 11 6 ZZW 1015,9 20
16.08.2018 12:00:00 24,9 11,9 14 8 Z 1016,4 20
16.08.2018 11:00:00 23,7 13,0 14 8 Z 1017,0 15
16.08.2018 10:00:00 21,6 12,9 11 6 Z 1017,3 15
16.08.2018 09:00:00 19,0 13,3 14 8 ZO 1017,5 14
16.08.2018 08:00:00 16,0 12,8 7 4 OZO 1018,1 14
16.08.2018 07:00:00 14,1 12,3 0 0 N 1018,1 12
16.08.2018 06:00:00 13,8 12,3 0 0 N 1018,2 12
16.08.2018 05:00:00 14,6 12,7 0 0 N 1018,4 20
16.08.2018 04:00:00 14,7 12,8 0 0 N 1018,6 20
16.08.2018 03:00:00 16,0 13,4 0 0 N 1018,7 20
16.08.2018 02:00:00 16,5 13,2 0 0 N 1018,8 20
16.08.2018 01:00:00 16,4 13,5 0 0 N 1018,8 20
16.08.2018 00:00:00 17,2 13,7 0 0 N 1018,8 20
15.08.2018 23:00:00 17,8 14,0 0 0 N 1018,8 25
15.08.2018 22:00:00 18,7 14,3 0 0 N 1018,9 25
15.08.2018 21:00:00 20,1 13,9 0 0 N 1018,7 25
15.08.2018 20:00:00 23,0 13,1 4 2 ZZW 1018,3 30
15.08.2018 19:00:00 23,9 12,6 11 6 ZZW 1018,4 25
15.08.2018 18:00:00 23,3 12,6 7 4 WZW 1018,7 25
15.08.2018 17:00:00 23,5 12,0 11 6 ZZW 1018,9 25
15.08.2018 16:00:00 23,2 12,3 18 10 WZW 1018,8 25
15.08.2018 15:00:00 22,9 12,8 11 6 WZW 1018,8 25
15.08.2018 14:00:00 22,1 12,7 14 8 WZW 1018,9 20
15.08.2018 13:00:00 21,4 13,0 11 6 W 1018,7 25
15.08.2018 12:00:00 21,7 13,4 14 8 WZW 1018,7 25
15.08.2018 11:00:00 20,7 13,5 11 6 WZW 1018,8 20
15.08.2018 10:00:00 19,0 14,1 14 8 WZW 1018,5 20
15.08.2018 09:00:00 17,7 13,7 14 8 ZW 1018,1 25
15.08.2018 08:00:00 15,7 12,6 7 4 ZW 1017,8 25
15.08.2018 07:00:00 15,1 12,7 4 2 ZW 1017,5 25
15.08.2018 06:00:00 14,7 12,9 7 4 ZW 1017,1 25

tt = temperatuur
td = dauwpunt
ff = windsnelheid
dd = windrichting
ppp = luchtdruk
vv = zicht

Weerstations in de omgeving